Time,TemperatureF,DewpointF,PressureIn,WindDirection,WindDirectionDegrees,WindSpeedMPH,WindSpeedGustMPH,Humidity,HourlyPrecipIn,Conditions,Clouds,dailyrainin,SoftwareType,DateUTC
2013-03-03 00:00:00,29.8,20.2,29.84,West,280,12.0,12.0,67,0.00,,,0.00,Wunderground v.1.15,2013-03-03 05:00:00,
2013-03-03 00:05:00,29.7,20.1,29.84,West,267,12.0,12.0,67,0.00,,,0.00,Wunderground v.1.15,2013-03-03 05:05:00,
2013-03-03 00:10:00,29.7,20.1,29.84,NNW,333,11.0,13.0,67,0.00,,,0.00,Wunderground v.1.15,2013-03-03 05:10:00,
2013-03-03 00:15:00,29.7,20.1,29.84,NNW,328,12.0,13.0,67,0.00,,,0.00,Wunderground v.1.15,2013-03-03 05:15:00,
2013-03-03 00:20:00,29.8,20.2,29.84,WSW,257,13.0,13.0,67,0.00,,,0.00,Wunderground v.1.15,2013-03-03 05:20:00,
2013-03-03 00:25:00,29.7,20.1,29.84,West,277,13.0,16.0,67,0.00,,,0.00,Wunderground v.1.15,2013-03-03 05:25:00,
2013-03-03 00:35:00,29.7,20.1,29.84,West,281,13.0,13.0,67,0.00,,,0.00,Wunderground v.1.15,2013-03-03 05:35:00,
2013-03-03 00:40:00,29.7,20.1,29.84,NW,308,11.0,12.0,67,0.00,,,0.00,Wunderground v.1.15,2013-03-03 05:40:00,
2013-03-03 00:45:00,29.6,20.0,29.84,WNW,298,11.0,12.0,67,0.00,,,0.00,Wunderground v.1.15,2013-03-03 05:45:00,
2013-03-03 00:50:00,29.5,19.9,29.84,WNW,292,10.0,10.0,67,0.00,,,0.00,Wunderground v.1.15,2013-03-03 05:50:00,
2013-03-03 00:55:00,29.4,19.8,29.84,West,271,9.0,10.0,67,0.00,,,0.00,Wunderground v.1.15,2013-03-03 05:55:00,
2013-03-03 01:00:00,29.4,20.1,29.84,West,279,9.0,9.0,68,0.00,,,0.00,Wunderground v.1.15,2013-03-03 06:00:00,
2013-03-03 01:10:00,29.3,20.0,29.84,West,273,8.0,10.0,68,0.00,,,0.00,Wunderground v.1.15,2013-03-03 06:10:00,
2013-03-03 01:15:00,29.3,20.0,29.84,West,271,10.0,10.0,68,0.00,,,0.00,Wunderground v.1.15,2013-03-03 06:15:00,
2013-03-03 01:20:00,29.3,20.0,29.85,WNW,286,11.0,11.0,68,0.00,,,0.00,Wunderground v.1.15,2013-03-03 06:20:00,
2013-03-03 01:25:00,29.3,20.0,29.85,West,273,10.0,11.0,68,0.00,,,0.00,Wunderground v.1.15,2013-03-03 06:25:00,
2013-03-03 01:30:00,29.2,19.9,29.84,West,262,9.0,13.0,68,0.00,,,0.00,Wunderground v.1.15,2013-03-03 06:30:00,
2013-03-03 01:40:00,29.2,19.9,29.85,WNW,287,9.0,9.0,68,0.00,,,0.00,Wunderground v.1.15,2013-03-03 06:40:00,
2013-03-03 01:45:00,29.2,19.9,29.85,West,279,9.0,11.0,68,0.00,,,0.00,Wunderground v.1.15,2013-03-03 06:45:00,
2013-03-03 01:50:00,29.2,19.9,29.85,WNW,286,9.0,9.0,68,0.00,,,0.00,Wunderground v.1.15,2013-03-03 06:50:00,
2013-03-03 01:55:00,29.2,19.9,29.85,WNW,292,9.0,9.0,68,0.00,,,0.00,Wunderground v.1.15,2013-03-03 06:55:00,
2013-03-03 02:00:00,29.2,19.9,29.85,NNW,347,9.0,9.0,68,0.00,,,0.00,Wunderground v.1.15,2013-03-03 07:00:00,
2013-03-03 02:05:00,29.1,19.8,29.85,WNW,282,8.0,9.0,68,0.00,,,0.00,Wunderground v.1.15,2013-03-03 07:05:00,
2013-03-03 02:10:00,29.1,20.2,29.85,West,265,7.0,9.0,69,0.00,,,0.00,Wunderground v.1.15,2013-03-03 07:10:00,
2013-03-03 02:15:00,29.1,19.8,29.85,WNW,296,8.0,9.0,68,0.00,,,0.00,Wunderground v.1.15,2013-03-03 07:15:00,
2013-03-03 02:20:00,29.2,19.9,29.85,WNW,288,8.0,8.0,68,0.00,,,0.00,Wunderground v.1.15,2013-03-03 07:20:00,
2013-03-03 02:25:00,29.2,19.9,29.85,NW,321,5.0,8.0,68,0.00,,,0.00,Wunderground v.1.15,2013-03-03 07:25:00,
2013-03-03 02:30:00,29.1,19.8,29.84,West,271,4.0,4.0,68,0.00,,,0.00,Wunderground v.1.15,2013-03-03 07:30:00,
2013-03-03 02:40:00,29.0,20.1,29.85,SSW,198,4.0,4.0,69,0.00,,,0.00,Wunderground v.1.15,2013-03-03 07:40:00,
2013-03-03 02:45:00,29.1,20.2,29.85,West,277,5.0,5.0,69,0.00,,,0.00,Wunderground v.1.15,2013-03-03 07:45:00,
2013-03-03 02:50:00,29.1,20.2,29.84,West,279,5.0,7.0,69,0.00,,,0.00,Wunderground v.1.15,2013-03-03 07:50:00,
2013-03-03 02:55:00,29.1,20.2,29.84,West,269,4.0,7.0,69,0.00,,,0.00,Wunderground v.1.15,2013-03-03 07:55:00,
2013-03-03 03:00:00,29.2,20.3,29.84,WNW,286,4.0,4.0,69,0.00,,,0.00,Wunderground v.1.15,2013-03-03 08:00:00,
2013-03-03 03:10:00,29.2,20.3,29.84,WSW,256,4.0,4.0,69,0.00,,,0.00,Wunderground v.1.15,2013-03-03 08:10:00,
2013-03-03 03:15:00,29.2,20.3,29.84,NW,317,4.0,10.0,69,0.00,,,0.00,Wunderground v.1.15,2013-03-03 08:15:00,
2013-03-03 03:20:00,29.2,20.6,29.84,West,275,5.0,7.0,70,0.00,,,0.00,Wunderground v.1.15,2013-03-03 08:20:00,
2013-03-03 03:25:00,29.2,20.6,29.84,West,273,7.0,7.0,70,0.00,,,0.00,Wunderground v.1.15,2013-03-03 08:25:00,
2013-03-03 03:30:00,29.2,21.0,29.84,West,274,6.0,6.0,71,0.00,,,0.00,Wunderground v.1.15,2013-03-03 08:30:00,
2013-03-03 03:35:00,29.1,20.9,29.84,West,273,5.0,6.0,71,0.00,,,0.00,Wunderground v.1.15,2013-03-03 08:35:00,
2013-03-03 03:45:00,29.2,21.0,29.84,West,259,5.0,5.0,71,0.00,,,0.00,Wunderground v.1.15,2013-03-03 08:45:00,
2013-03-03 03:50:00,29.2,21.0,29.84,NW,316,4.0,4.0,71,0.00,,,0.00,Wunderground v.1.15,2013-03-03 08:50:00,
2013-03-03 03:55:00,29.1,20.9,29.84,NW,314,4.0,4.0,71,0.00,,,0.00,Wunderground v.1.15,2013-03-03 08:55:00,
2013-03-03 04:00:00,29.0,20.8,29.84,WNW,293,3.0,3.0,71,0.00,,,0.00,Wunderground v.1.15,2013-03-03 09:00:00,
2013-03-03 04:10:00,28.8,20.9,29.84,NW,326,4.0,4.0,72,0.00,,,0.00,Wunderground v.1.15,2013-03-03 09:10:00,
2013-03-03 04:20:00,28.8,20.6,29.84,West,269,4.0,5.0,71,0.00,,,0.00,Wunderground v.1.15,2013-03-03 09:20:00,
2013-03-03 04:25:00,28.9,21.0,29.84,West,277,4.0,5.0,72,0.00,,,0.00,Wunderground v.1.15,2013-03-03 09:25:00,
2013-03-03 04:30:00,28.9,21.0,29.84,NW,305,3.0,3.0,72,0.00,,,0.00,Wunderground v.1.15,2013-03-03 09:30:00,
2013-03-03 04:35:00,28.9,21.0,29.84,NW,309,3.0,3.0,72,0.00,,,0.00,Wunderground v.1.15,2013-03-03 09:35:00,
2013-03-03 04:40:00,29.0,21.4,29.84,NNW,327,3.0,4.0,73,0.00,,,0.00,Wunderground v.1.15,2013-03-03 09:40:00,
2013-03-03 04:50:00,28.9,21.3,29.84,North,355,3.0,3.0,73,0.00,,,0.00,Wunderground v.1.15,2013-03-03 09:50:00,
2013-03-03 04:55:00,28.9,21.3,29.84,NW,315,3.0,3.0,73,0.00,,,0.00,Wunderground v.1.15,2013-03-03 09:55:00,
2013-03-03 05:00:00,29.0,21.4,29.84,WNW,294,3.0,3.0,73,0.00,,,0.00,Wunderground v.1.15,2013-03-03 10:00:00,
2013-03-03 05:10:00,28.9,21.3,29.85,SW,234,3.0,3.0,73,0.00,,,0.00,Wunderground v.1.15,2013-03-03 10:10:00,
2013-03-03 05:15:00,29.0,21.4,29.85,NNW,330,3.0,4.0,73,0.00,,,0.00,Wunderground v.1.15,2013-03-03 10:15:00,
2013-03-03 05:25:00,29.0,21.4,29.85,NNW,329,3.0,4.0,73,0.00,,,0.00,Wunderground v.1.15,2013-03-03 10:25:00,
2013-03-03 05:30:00,28.9,21.3,29.86,NW,312,2.0,2.0,73,0.00,,,0.00,Wunderground v.1.15,2013-03-03 10:30:00,
2013-03-03 05:35:00,28.9,21.3,29.86,NNW,331,1.0,2.0,73,0.00,,,0.00,Wunderground v.1.15,2013-03-03 10:35:00,
2013-03-03 05:40:00,28.9,21.3,29.86,NW,317,2.0,2.0,73,0.00,,,0.00,Wunderground v.1.15,2013-03-03 10:40:00,
2013-03-03 05:45:00,28.9,21.3,29.86,NNE,27,2.0,4.0,73,0.00,,,0.00,Wunderground v.1.15,2013-03-03 10:45:00,
2013-03-03 05:50:00,28.9,21.7,29.86,NW,313,2.0,3.0,74,0.00,,,0.00,Wunderground v.1.15,2013-03-03 10:50:00,
2013-03-03 05:55:00,28.9,21.7,29.85,NW,315,2.0,3.0,74,0.00,,,0.00,Wunderground v.1.15,2013-03-03 10:55:00,
2013-03-03 06:00:00,28.9,21.7,29.86,North,5,1.0,1.0,74,0.00,,,0.00,Wunderground v.1.15,2013-03-03 11:00:00,
2013-03-03 06:10:00,28.9,21.7,29.85,West,273,2.0,4.0,74,0.00,,,0.00,Wunderground v.1.15,2013-03-03 11:10:00,
2013-03-03 06:15:00,28.8,21.9,29.85,NNW,331,4.0,4.0,75,0.00,,,0.00,Wunderground v.1.15,2013-03-03 11:15:00,
2013-03-03 06:25:00,28.7,22.1,29.85,West,265,3.0,5.0,76,0.00,,,0.00,Wunderground v.1.15,2013-03-03 11:25:00,
2013-03-03 06:30:00,28.6,22.0,29.85,NNW,343,4.0,4.0,76,0.00,,,0.00,Wunderground v.1.15,2013-03-03 11:30:00,
2013-03-03 06:35:00,28.7,22.4,29.85,NNW,334,3.0,4.0,77,0.00,,,0.00,Wunderground v.1.15,2013-03-03 11:35:00,
2013-03-03 06:40:00,28.6,22.3,29.85,NW,314,2.0,2.0,77,0.00,,,0.00,Wunderground v.1.15,2013-03-03 11:40:00,
2013-03-03 06:45:00,28.6,22.3,29.85,North,355,2.0,6.0,77,0.00,,,0.00,Wunderground v.1.15,2013-03-03 11:45:00,
2013-03-03 06:50:00,28.6,22.3,29.85,NNW,345,1.0,1.0,77,0.00,,,0.00,Wunderground v.1.15,2013-03-03 11:50:00,
2013-03-03 07:00:00,28.6,22.0,29.85,NNW,343,0.0,0.0,76,0.00,,,0.00,Wunderground v.1.15,2013-03-03 12:00:00,
2013-03-03 07:10:00,28.6,22.0,29.85,WNW,289,1.0,1.0,76,0.00,,,0.00,Wunderground v.1.15,2013-03-03 12:10:00,
2013-03-03 07:15:00,28.7,22.1,29.85,West,274,2.0,2.0,76,0.00,,,0.00,Wunderground v.1.15,2013-03-03 12:15:00,
2013-03-03 07:20:00,28.9,22.0,29.85,West,267,2.0,4.0,75,0.00,,,0.00,Wunderground v.1.15,2013-03-03 12:20:00,
2013-03-03 07:30:00,29.3,22.0,29.85,North,350,2.0,5.0,74,0.00,,,0.00,Wunderground v.1.15,2013-03-03 12:30:00,
2013-03-03 07:35:00,29.5,22.2,29.85,NW,325,2.0,5.0,74,0.00,,,0.00,Wunderground v.1.15,2013-03-03 12:35:00,
2013-03-03 07:40:00,29.6,22.0,29.85,NW,317,1.0,1.0,73,0.00,,,0.00,Wunderground v.1.15,2013-03-03 12:40:00,
2013-03-03 07:45:00,29.8,22.2,29.85,NNW,336,1.0,1.0,73,0.00,,,0.00,Wunderground v.1.15,2013-03-03 12:45:00,
2013-03-03 07:50:00,29.9,22.3,29.86,West,274,2.0,4.0,73,0.00,,,0.00,Wunderground v.1.15,2013-03-03 12:50:00,
2013-03-03 07:55:00,30.2,21.9,29.86,West,275,2.0,5.0,71,0.00,,,0.00,Wunderground v.1.15,2013-03-03 12:55:00,
2013-03-03 08:00:00,30.4,21.8,29.86,WNW,300,4.0,5.0,70,0.00,,,0.00,Wunderground v.1.15,2013-03-03 13:00:00,
2013-03-03 08:10:00,30.5,21.9,29.86,West,259,6.0,7.0,70,0.00,,,0.00,Wunderground v.1.15,2013-03-03 13:10:00,
2013-03-03 08:15:00,30.5,21.9,29.86,West,259,7.0,7.0,70,0.00,,,0.00,Wunderground v.1.15,2013-03-03 13:15:00,
2013-03-03 08:20:00,30.6,22.3,29.86,WNW,291,5.0,5.0,71,0.00,,,0.00,Wunderground v.1.15,2013-03-03 13:20:00,
2013-03-03 08:25:00,30.6,21.6,29.86,NW,325,3.0,5.0,69,0.00,,,0.00,Wunderground v.1.15,2013-03-03 13:25:00,
2013-03-03 08:35:00,31.1,21.8,29.86,North,9,2.0,4.0,68,0.00,,,0.00,Wunderground v.1.15,2013-03-03 13:35:00,
2013-03-03 08:40:00,31.4,21.7,29.86,WNW,300,3.0,3.0,67,0.00,,,0.00,Wunderground v.1.15,2013-03-03 13:40:00,
2013-03-03 08:45:00,31.5,22.1,29.86,WNW,290,3.0,3.0,68,0.00,,,0.00,Wunderground v.1.15,2013-03-03 13:45:00,
2013-03-03 08:50:00,31.5,21.8,29.86,NNW,327,3.0,5.0,67,0.00,,,0.00,Wunderground v.1.15,2013-03-03 13:50:00,
2013-03-03 08:55:00,31.7,21.3,29.86,NNW,333,4.0,5.0,65,0.00,,,0.00,Wunderground v.1.15,2013-03-03 13:55:00,
2013-03-03 09:00:00,32.1,21.3,29.86,NNW,329,3.0,8.0,64,0.00,,,0.00,Wunderground v.1.15,2013-03-03 14:00:00,
2013-03-03 09:05:00,32.1,20.5,29.87,WNW,296,5.0,8.0,62,0.00,,,0.00,Wunderground v.1.15,2013-03-03 14:05:00,
2013-03-03 09:10:00,32.3,20.3,29.86,NW,315,6.0,6.0,61,0.00,,,0.00,Wunderground v.1.15,2013-03-03 14:10:00,
2013-03-03 09:15:00,32.5,20.5,29.86,North,9,4.0,6.0,61,0.00,,,0.00,Wunderground v.1.15,2013-03-03 14:15:00,
2013-03-03 09:20:00,32.7,20.7,29.86,West,265,3.0,14.0,61,0.00,,,0.00,Wunderground v.1.15,2013-03-03 14:20:00,
2013-03-03 09:25:00,32.4,20.0,29.86,NNW,327,6.0,14.0,60,0.00,,,0.00,Wunderground v.1.15,2013-03-03 14:25:00,
2013-03-03 09:30:00,32.7,20.3,29.86,WNW,300,6.0,6.0,60,0.00,,,0.00,Wunderground v.1.15,2013-03-03 14:30:00,
2013-03-03 09:40:00,33.3,20.5,29.86,WNW,298,9.0,9.0,59,0.00,,,0.00,Wunderground v.1.15,2013-03-03 14:40:00,
2013-03-03 09:45:00,32.8,20.4,29.86,WSW,249,10.0,10.0,60,0.00,,,0.00,Wunderground v.1.15,2013-03-03 14:45:00,
2013-03-03 09:50:00,32.9,20.9,29.85,West,263,7.0,7.0,61,0.00,,,0.00,Wunderground v.1.15,2013-03-03 14:50:00,
2013-03-03 09:55:00,33.0,21.4,29.85,WNW,283,6.0,7.0,62,0.00,,,0.00,Wunderground v.1.15,2013-03-03 14:55:00,
2013-03-03 10:01:00,32.6,21.0,29.86,WNW,296,9.0,13.0,62,0.00,,,0.00,Wunderground v.1.15,2013-03-03 15:01:00,
2013-03-03 10:10:00,32.3,20.3,29.86,North,355,11.0,11.0,61,0.00,,,0.00,Wunderground v.1.15,2013-03-03 15:10:00,
2013-03-03 10:15:00,32.4,20.4,29.86,NW,321,11.0,11.0,61,0.00,,,0.00,Wunderground v.1.15,2013-03-03 15:15:00,
2013-03-03 10:20:00,33.0,21.0,29.86,North,355,10.0,10.0,61,0.00,,,0.00,Wunderground v.1.15,2013-03-03 15:20:00,
2013-03-03 10:25:00,33.9,21.1,29.86,NNW,339,6.0,10.0,59,0.00,,,0.00,Wunderground v.1.15,2013-03-03 15:25:00,
2013-03-03 10:35:00,34.3,20.6,29.86,NNW,337,7.0,10.0,57,0.00,,,0.00,Wunderground v.1.15,2013-03-03 15:35:00,
2013-03-03 10:40:00,34.2,20.5,29.86,WNW,291,7.0,7.0,57,0.00,,,0.00,Wunderground v.1.15,2013-03-03 15:40:00,
2013-03-03 10:45:00,34.5,20.8,29.86,North,360,6.0,8.0,57,0.00,,,0.00,Wunderground v.1.15,2013-03-03 15:45:00,
2013-03-03 10:50:00,34.5,20.4,29.85,WNW,291,7.0,9.0,56,0.00,,,0.00,Wunderground v.1.15,2013-03-03 15:50:00,
2013-03-03 10:55:00,34.7,20.6,29.85,NW,304,8.0,9.0,56,0.00,,,0.00,Wunderground v.1.15,2013-03-03 15:55:00,
2013-03-03 11:00:00,34.6,20.5,29.85,WSW,246,7.0,7.0,56,0.00,,,0.00,Wunderground v.1.15,2013-03-03 16:00:00,
2013-03-03 11:10:00,34.5,20.8,29.86,West,269,6.0,6.0,57,0.00,,,0.00,Wunderground v.1.15,2013-03-03 16:10:00,
2013-03-03 11:15:00,34.0,20.3,29.86,WNW,288,6.0,6.0,57,0.00,,,0.00,Wunderground v.1.15,2013-03-03 16:15:00,
2013-03-03 11:20:00,33.9,19.8,29.85,West,270,8.0,16.0,56,0.00,,,0.00,Wunderground v.1.15,2013-03-03 16:20:00,
2013-03-03 11:25:00,33.8,19.7,29.85,West,263,10.0,20.0,56,0.00,,,0.00,Wunderground v.1.15,2013-03-03 16:25:00,
2013-03-03 11:30:00,34.3,20.6,29.86,West,271,12.0,12.0,57,0.00,,,0.00,Wunderground v.1.15,2013-03-03 16:30:00,
2013-03-03 11:40:00,35.0,20.9,29.85,WNW,292,10.0,16.0,56,0.00,,,0.00,Wunderground v.1.15,2013-03-03 16:40:00,
2013-03-03 11:45:00,35.2,21.1,29.85,West,275,12.0,16.0,56,0.00,,,0.00,Wunderground v.1.15,2013-03-03 16:45:00,
2013-03-03 11:50:00,35.9,20.9,29.85,NW,310,10.0,10.0,54,0.00,,,0.00,Wunderground v.1.15,2013-03-03 16:50:00,
2013-03-03 11:55:00,36.2,20.7,29.85,NW,308,7.0,10.0,53,0.00,,,0.00,Wunderground v.1.15,2013-03-03 16:55:00,
2013-03-03 12:00:00,36.5,21.0,29.84,NNW,330,6.0,16.0,53,0.00,,,0.00,Wunderground v.1.15,2013-03-03 17:00:00,
2013-03-03 12:05:00,36.9,20.4,29.85,West,266,7.0,16.0,51,0.00,,,0.00,Wunderground v.1.15,2013-03-03 17:05:00,
2013-03-03 12:10:00,35.9,19.5,29.84,WSW,257,9.0,9.0,51,0.00,,,0.00,Wunderground v.1.15,2013-03-03 17:10:00,
2013-03-03 12:20:00,37.0,21.0,29.84,West,281,8.0,8.0,52,0.00,,,0.00,Wunderground v.1.15,2013-03-03 17:20:00,
2013-03-03 12:25:00,37.2,20.2,29.84,WNW,292,10.0,10.0,50,0.00,,,0.00,Wunderground v.1.15,2013-03-03 17:25:00,
2013-03-03 12:30:00,36.9,20.0,29.83,WNW,292,11.0,11.0,50,0.00,,,0.00,Wunderground v.1.15,2013-03-03 17:30:00,
2013-03-03 12:35:00,36.8,19.9,29.83,WNW,293,10.0,11.0,50,0.00,,,0.00,Wunderground v.1.15,2013-03-03 17:35:00,
2013-03-03 12:40:00,35.9,19.0,29.83,NNW,344,10.0,10.0,50,0.00,,,0.00,Wunderground v.1.15,2013-03-03 17:40:00,
2013-03-03 12:45:00,35.5,19.6,29.83,West,274,10.0,10.0,52,0.00,,,0.00,Wunderground v.1.15,2013-03-03 17:45:00,
2013-03-03 12:50:00,35.2,19.3,29.83,West,274,9.0,11.0,52,0.00,,,0.00,Wunderground v.1.15,2013-03-03 17:50:00,
2013-03-03 12:55:00,35.1,19.2,29.83,WNW,290,11.0,11.0,52,0.00,,,0.00,Wunderground v.1.15,2013-03-03 17:55:00,
2013-03-03 13:01:00,35.3,19.4,29.82,West,273,9.0,17.0,52,0.00,,,0.00,Wunderground v.1.15,2013-03-03 18:01:00,
2013-03-03 13:10:00,35.8,19.9,29.82,WSW,242,10.0,10.0,52,0.00,,,0.00,Wunderground v.1.15,2013-03-03 18:10:00,
2013-03-03 13:15:00,36.5,20.1,29.82,NW,305,11.0,11.0,51,0.00,,,0.00,Wunderground v.1.15,2013-03-03 18:15:00,
2013-03-03 13:20:00,37.3,20.3,29.81,West,259,10.0,13.0,50,0.00,,,0.00,Wunderground v.1.15,2013-03-03 18:20:00,
2013-03-03 13:25:00,37.3,20.3,29.81,West,275,11.0,13.0,50,0.00,,,0.00,Wunderground v.1.15,2013-03-03 18:25:00,
2013-03-03 13:30:00,37.4,19.5,29.81,WNW,300,13.0,13.0,48,0.00,,,0.00,Wunderground v.1.15,2013-03-03 18:30:00,
2013-03-03 13:35:00,37.3,19.9,29.81,WNW,289,14.0,14.0,49,0.00,,,0.00,Wunderground v.1.15,2013-03-03 18:35:00,
2013-03-03 13:45:00,37.2,19.8,29.80,West,277,11.0,24.0,49,0.00,,,0.00,Wunderground v.1.15,2013-03-03 18:45:00,
2013-03-03 13:50:00,37.1,19.2,29.80,NW,311,11.0,11.0,48,0.00,,,0.00,Wunderground v.1.15,2013-03-03 18:50:00,
2013-03-03 13:55:00,37.1,19.2,29.80,WNW,302,11.0,11.0,48,0.00,,,0.00,Wunderground v.1.15,2013-03-03 18:55:00,
2013-03-03 14:01:00,37.2,19.3,29.80,NNW,342,10.0,10.0,48,0.00,,,0.00,Wunderground v.1.15,2013-03-03 19:01:00,
2013-03-03 14:10:00,37.7,19.8,29.80,WNW,299,11.0,16.0,48,0.00,,,0.00,Wunderground v.1.15,2013-03-03 19:10:00,
2013-03-03 14:20:00,37.8,19.8,29.80,WNW,288,9.0,9.0,48,0.00,,,0.00,Wunderground v.1.15,2013-03-03 19:20:00,
2013-03-03 14:25:00,37.8,20.3,29.80,NW,319,6.0,9.0,49,0.00,,,0.00,Wunderground v.1.15,2013-03-03 19:25:00,
2013-03-03 14:30:00,37.8,20.3,29.80,NNW,331,7.0,7.0,49,0.00,,,0.00,Wunderground v.1.15,2013-03-03 19:30:00,
2013-03-03 14:35:00,37.9,19.9,29.80,West,268,8.0,12.0,48,0.00,,,0.00,Wunderground v.1.15,2013-03-03 19:35:00,
2013-03-03 14:40:00,38.0,20.0,29.81,WNW,282,8.0,13.0,48,0.00,,,0.00,Wunderground v.1.15,2013-03-03 19:40:00,
2013-03-03 14:50:00,38.1,20.6,29.81,NNW,340,5.0,8.0,49,0.00,,,0.00,Wunderground v.1.15,2013-03-03 19:50:00,
2013-03-03 14:55:00,38.2,20.2,29.81,WNW,294,5.0,11.0,48,0.00,,,0.00,Wunderground v.1.15,2013-03-03 19:55:00,
2013-03-03 15:01:00,38.1,20.6,29.81,West,260,8.0,8.0,49,0.00,,,0.00,Wunderground v.1.15,2013-03-03 20:01:00,
2013-03-03 15:10:00,39.0,20.9,29.80,North,9,7.0,7.0,48,0.00,,,0.00,Wunderground v.1.15,2013-03-03 20:10:00,
2013-03-03 15:15:00,39.3,21.7,29.81,NW,305,7.0,7.0,49,0.00,,,0.00,Wunderground v.1.15,2013-03-03 20:15:00,
2013-03-03 15:25:00,39.5,21.4,29.81,WSW,252,6.0,22.0,48,0.00,,,0.00,Wunderground v.1.15,2013-03-03 20:25:00,
2013-03-03 15:30:00,38.8,19.8,29.81,North,5,9.0,9.0,46,0.00,,,0.00,Wunderground v.1.15,2013-03-03 20:30:00,
2013-03-03 15:35:00,38.5,20.5,29.81,WNW,288,8.0,9.0,48,0.00,,,0.00,Wunderground v.1.15,2013-03-03 20:35:00,
2013-03-03 15:40:00,38.3,20.8,29.81,West,280,7.0,7.0,49,0.00,,,0.00,Wunderground v.1.15,2013-03-03 20:40:00,
2013-03-03 15:45:00,37.9,20.4,29.81,West,261,8.0,8.0,49,0.00,,,0.00,Wunderground v.1.15,2013-03-03 20:45:00,
2013-03-03 15:55:00,38.3,20.8,29.81,North,355,7.0,13.0,49,0.00,,,0.00,Wunderground v.1.15,2013-03-03 20:55:00,
2013-03-03 16:00:00,38.0,20.0,29.81,NNW,344,8.0,8.0,48,0.00,,,0.00,Wunderground v.1.15,2013-03-03 21:00:00,
2013-03-03 16:10:00,37.7,20.2,29.81,NW,309,5.0,5.0,49,0.00,,,0.00,Wunderground v.1.15,2013-03-03 21:10:00,
2013-03-03 16:15:00,38.1,20.6,29.81,WNW,283,4.0,8.0,49,0.00,,,0.00,Wunderground v.1.15,2013-03-03 21:15:00,
2013-03-03 16:20:00,38.7,20.2,29.81,North,350,5.0,7.0,47,0.00,,,0.00,Wunderground v.1.15,2013-03-03 21:20:00,
2013-03-03 16:30:00,38.3,19.8,29.81,NNW,336,5.0,5.0,47,0.00,,,0.00,Wunderground v.1.15,2013-03-03 21:30:00,
2013-03-03 16:35:00,37.2,19.3,29.81,North,5,6.0,15.0,48,0.00,,,0.00,Wunderground v.1.15,2013-03-03 21:35:00,
2013-03-03 16:40:00,36.5,19.6,29.82,NNW,332,9.0,9.0,50,0.00,,,0.00,Wunderground v.1.15,2013-03-03 21:40:00,
2013-03-03 16:45:00,36.0,19.1,29.82,NNW,348,7.0,9.0,50,0.00,,,0.00,Wunderground v.1.15,2013-03-03 21:45:00,
2013-03-03 16:50:00,35.9,19.5,29.82,West,268,5.0,5.0,51,0.00,,,0.00,Wunderground v.1.15,2013-03-03 21:50:00,
2013-03-03 17:00:00,35.5,19.6,29.83,NNW,339,5.0,5.0,52,0.00,,,0.00,Wunderground v.1.15,2013-03-03 22:00:00,
2013-03-03 17:10:00,35.1,19.7,29.83,North,355,6.0,6.0,53,0.00,,,0.00,Wunderground v.1.15,2013-03-03 22:10:00,
2013-03-03 17:15:00,34.9,19.5,29.83,NNW,340,5.0,7.0,53,0.00,,,0.00,Wunderground v.1.15,2013-03-03 22:15:00,
2013-03-03 17:20:00,34.8,19.8,29.83,NNE,21,5.0,5.0,54,0.00,,,0.00,Wunderground v.1.15,2013-03-03 22:20:00,
2013-03-03 17:25:00,34.7,19.3,29.83,NNW,342,5.0,8.0,53,0.00,,,0.00,Wunderground v.1.15,2013-03-03 22:25:00,
2013-03-03 17:30:00,34.7,19.3,29.83,West,277,4.0,4.0,53,0.00,,,0.00,Wunderground v.1.15,2013-03-03 22:30:00,
2013-03-03 17:35:00,34.7,19.7,29.84,ENE,73,3.0,4.0,54,0.00,,,0.00,Wunderground v.1.15,2013-03-03 22:35:00,
2013-03-03 17:40:00,34.4,19.5,29.84,NW,313,4.0,4.0,54,0.00,,,0.00,Wunderground v.1.15,2013-03-03 22:40:00,
2013-03-03 17:45:00,34.3,19.4,29.84,NW,318,4.0,4.0,54,0.00,,,0.00,Wunderground v.1.15,2013-03-03 22:45:00,
2013-03-03 17:50:00,34.1,19.2,29.84,NW,318,4.0,10.0,54,0.00,,,0.00,Wunderground v.1.15,2013-03-03 22:50:00,
2013-03-03 17:55:00,33.8,18.9,29.84,NW,321,6.0,10.0,54,0.00,,,0.00,Wunderground v.1.15,2013-03-03 22:55:00,
2013-03-03 18:01:00,33.6,18.7,29.84,West,267,6.0,6.0,54,0.00,,,0.00,Wunderground v.1.15,2013-03-03 23:01:00,
2013-03-03 18:10:00,33.2,18.8,29.85,NNW,340,4.0,4.0,55,0.00,,,0.00,Wunderground v.1.15,2013-03-03 23:10:00,
2013-03-03 18:15:00,33.1,18.7,29.85,WSW,255,3.0,7.0,55,0.00,,,0.00,Wunderground v.1.15,2013-03-03 23:15:00,
2013-03-03 18:20:00,33.0,18.6,29.85,NNW,337,4.0,10.0,55,0.00,,,0.00,Wunderground v.1.15,2013-03-03 23:20:00,
2013-03-03 18:25:00,33.0,18.6,29.85,WSW,248,6.0,10.0,55,0.00,,,0.00,Wunderground v.1.15,2013-03-03 23:25:00,
2013-03-03 18:35:00,32.7,18.7,29.86,NE,53,4.0,11.0,56,0.00,,,0.00,Wunderground v.1.15,2013-03-03 23:35:00,
2013-03-03 18:40:00,32.6,18.6,29.86,NW,306,5.0,5.0,56,0.00,,,0.00,Wunderground v.1.15,2013-03-03 23:40:00,
2013-03-03 18:45:00,32.5,18.5,29.86,NNE,20,3.0,5.0,56,0.00,,,0.00,Wunderground v.1.15,2013-03-03 23:45:00,
2013-03-03 18:50:00,32.4,18.4,29.86,SSW,196,2.0,2.0,56,0.00,,,0.00,Wunderground v.1.15,2013-03-03 23:50:00,
2013-03-03 18:55:00,32.3,18.3,29.86,East,93,2.0,2.0,56,0.00,,,0.00,Wunderground v.1.15,2013-03-03 23:55:00,
2013-03-03 19:01:00,32.3,18.3,29.86,NNE,13,3.0,3.0,56,0.00,,,0.00,Wunderground v.1.15,2013-03-04 00:01:00,
2013-03-03 19:10:00,32.3,18.3,29.86,ESE,113,3.0,3.0,56,0.00,,,0.00,Wunderground v.1.15,2013-03-04 00:10:00,
2013-03-03 19:15:00,32.1,18.2,29.87,ENE,64,3.0,3.0,56,0.00,,,0.00,Wunderground v.1.15,2013-03-04 00:15:00,
2013-03-03 19:20:00,32.1,18.2,29.87,NNW,338,4.0,4.0,56,0.00,,,0.00,Wunderground v.1.15,2013-03-04 00:20:00,
2013-03-03 19:25:00,32.2,18.2,29.87,West,271,5.0,5.0,56,0.00,,,0.00,Wunderground v.1.15,2013-03-04 00:25:00,
2013-03-03 19:30:00,32.1,18.6,29.87,SSE,163,4.0,4.0,57,0.00,,,0.00,Wunderground v.1.15,2013-03-04 00:30:00,
2013-03-03 19:40:00,32.1,18.2,29.87,WSW,240,4.0,4.0,56,0.00,,,0.00,Wunderground v.1.15,2013-03-04 00:40:00,
2013-03-03 19:45:00,31.9,18.0,29.88,ENE,72,5.0,5.0,56,0.00,,,0.00,Wunderground v.1.15,2013-03-04 00:45:00,
2013-03-03 19:50:00,31.9,18.0,29.87,WSW,254,6.0,7.0,56,0.00,,,0.00,Wunderground v.1.15,2013-03-04 00:50:00,
2013-03-03 19:55:00,31.8,17.9,29.87,West,265,6.0,7.0,56,0.00,,,0.00,Wunderground v.1.15,2013-03-04 00:55:00,
2013-03-03 20:00:00,31.7,17.8,29.87,West,275,4.0,6.0,56,0.00,,,0.00,Wunderground v.1.15,2013-03-04 01:00:00,
2013-03-03 20:10:00,31.7,17.4,29.87,East,97,3.0,8.0,55,0.00,,,0.00,Wunderground v.1.15,2013-03-04 01:10:00,
2013-03-03 20:15:00,31.5,17.6,29.88,SE,124,3.0,8.0,56,0.00,,,0.00,Wunderground v.1.15,2013-03-04 01:15:00,
2013-03-03 20:20:00,31.5,17.6,29.88,NE,49,5.0,6.0,56,0.00,,,0.00,Wunderground v.1.15,2013-03-04 01:20:00,
2013-03-03 20:25:00,31.4,17.9,29.88,ENE,74,6.0,6.0,57,0.00,,,0.00,Wunderground v.1.15,2013-03-04 01:25:00,
2013-03-03 20:30:00,31.3,17.8,29.88,ENE,61,6.0,6.0,57,0.00,,,0.00,Wunderground v.1.15,2013-03-04 01:30:00,
2013-03-03 20:35:00,31.3,17.8,29.89,NE,51,3.0,8.0,57,0.00,,,0.00,Wunderground v.1.15,2013-03-04 01:35:00,
2013-03-03 20:45:00,31.2,17.7,29.89,WSW,254,4.0,5.0,57,0.00,,,0.00,Wunderground v.1.15,2013-03-04 01:45:00,
2013-03-03 20:50:00,31.1,17.6,29.88,East,98,3.0,3.0,57,0.00,,,0.00,Wunderground v.1.15,2013-03-04 01:50:00,
2013-03-03 20:55:00,30.9,17.4,29.89,NNE,27,3.0,6.0,57,0.00,,,0.00,Wunderground v.1.15,2013-03-04 01:55:00,
2013-03-03 21:00:00,31.1,17.6,29.89,NW,321,4.0,5.0,57,0.00,,,0.00,Wunderground v.1.15,2013-03-04 02:00:00,
2013-03-03 21:10:00,31.0,17.5,29.89,East,88,3.0,3.0,57,0.00,,,0.00,Wunderground v.1.15,2013-03-04 02:10:00,
2013-03-03 21:15:00,31.0,17.9,29.89,ENE,63,4.0,4.0,58,0.00,,,0.00,Wunderground v.1.15,2013-03-04 02:15:00,
2013-03-03 21:20:00,31.0,17.9,29.89,WNW,288,3.0,3.0,58,0.00,,,0.00,Wunderground v.1.15,2013-03-04 02:20:00,
2013-03-03 21:26:00,30.9,18.2,29.89,ESE,104,3.0,3.0,59,0.00,,,0.00,Wunderground v.1.15,2013-03-04 02:26:00,
2013-03-03 21:35:00,30.6,18.0,29.89,ESE,115,3.0,4.0,59,0.00,,,0.00,Wunderground v.1.15,2013-03-04 02:35:00,
2013-03-03 21:40:00,30.6,18.0,29.90,ESE,105,2.0,2.0,59,0.00,,,0.00,Wunderground v.1.15,2013-03-04 02:40:00,
2013-03-03 21:45:00,30.6,18.0,29.90,ESE,106,1.0,2.0,59,0.00,,,0.00,Wunderground v.1.15,2013-03-04 02:45:00,
2013-03-03 21:50:00,30.5,18.6,29.90,ENE,67,1.0,5.0,61,0.00,,,0.00,Wunderground v.1.15,2013-03-04 02:50:00,
2013-03-03 21:55:00,30.5,18.3,29.90,SW,224,2.0,5.0,60,0.00,,,0.00,Wunderground v.1.15,2013-03-04 02:55:00,
2013-03-03 22:01:00,30.8,18.1,29.90,ENE,76,3.0,3.0,59,0.00,,,0.00,Wunderground v.1.15,2013-03-04 03:01:00,
2013-03-03 22:10:00,30.7,18.4,29.90,NE,53,2.0,4.0,60,0.00,,,0.00,Wunderground v.1.15,2013-03-04 03:10:00,
2013-03-03 22:15:00,30.6,18.3,29.90,NW,323,3.0,4.0,60,0.00,,,0.00,Wunderground v.1.15,2013-03-04 03:15:00,
2013-03-03 22:20:00,30.6,18.3,29.90,North,349,4.0,4.0,60,0.00,,,0.00,Wunderground v.1.15,2013-03-04 03:20:00,
2013-03-03 22:25:00,30.7,18.4,29.90,South,174,3.0,4.0,60,0.00,,,0.00,Wunderground v.1.15,2013-03-04 03:25:00,
2013-03-03 22:30:00,30.8,18.1,29.90,WNW,302,2.0,2.0,59,0.00,,,0.00,Wunderground v.1.15,2013-03-04 03:30:00,
2013-03-03 22:35:00,30.8,18.5,29.91,West,259,2.0,11.0,60,0.00,,,0.00,Wunderground v.1.15,2013-03-04 03:35:00,
2013-03-03 22:40:00,30.9,18.6,29.90,NNW,346,4.0,7.0,60,0.00,,,0.00,Wunderground v.1.15,2013-03-04 03:40:00,
2013-03-03 22:45:00,30.9,18.2,29.90,West,272,5.0,7.0,59,0.00,,,0.00,Wunderground v.1.15,2013-03-04 03:45:00,
2013-03-03 22:55:00,30.8,18.9,29.91,NW,304,2.0,5.0,61,0.00,,,0.00,Wunderground v.1.15,2013-03-04 03:55:00,
2013-03-03 23:00:00,30.8,18.5,29.91,North,5,3.0,3.0,60,0.00,,,0.00,Wunderground v.1.15,2013-03-04 04:00:00,
2013-03-03 23:10:00,30.8,18.9,29.91,North,5,7.0,7.0,61,0.00,,,0.00,Wunderground v.1.15,2013-03-04 04:10:00,
2013-03-03 23:15:00,30.8,18.9,29.91,West,273,6.0,7.0,61,0.00,,,0.00,Wunderground v.1.15,2013-03-04 04:15:00,
2013-03-03 23:20:00,30.8,19.3,29.91,WSW,251,5.0,5.0,62,0.00,,,0.00,Wunderground v.1.15,2013-03-04 04:20:00,
2013-03-03 23:25:00,30.7,18.8,29.91,West,280,5.0,5.0,61,0.00,,,0.00,Wunderground v.1.15,2013-03-04 04:25:00,
2013-03-03 23:30:00,30.7,18.8,29.91,WNW,291,3.0,3.0,61,0.00,,,0.00,Wunderground v.1.15,2013-03-04 04:30:00,
2013-03-03 23:35:00,30.6,18.7,29.91,West,281,3.0,4.0,61,0.00,,,0.00,Wunderground v.1.15,2013-03-04 04:35:00,
2013-03-03 23:40:00,30.6,19.1,29.91,WNW,297,5.0,5.0,62,0.00,,,0.00,Wunderground v.1.15,2013-03-04 04:40:00,
2013-03-03 23:46:00,30.6,18.7,29.91,SW,232,5.0,5.0,61,0.00,,,0.00,Wunderground v.1.15,2013-03-04 04:46:00,
2013-03-03 23:55:00,30.4,18.9,29.91,West,281,3.0,4.0,62,0.00,,,0.00,Wunderground v.1.15,2013-03-04 04:55:00,